Volver al catálogo

STARLINK-11466

ActivoComunicacionesVLEO
NORAD 62220·PAYLOAD·🇺🇸 United States

Lanzado Dec 5, 2024 desde Vandenberg Space Force Base

Loading…

Próximos Pases (próximas 24 horas)

TLE

ActualizadoSource: CelesTrak SupGP

Época: Sep 14, 2026, 22:50 UTC

1 62220C 24231C   26257.95187500  .00045661  00000+0  37625-3 0  2575
2 62220  53.1570 248.4504 0001160  70.2674 332.6749 15.69678362    14

Sigue STARLINK-11466 en tiempo real con AllMySat

Download on the App Store